Tracking 35331 objects as of 16-Sep-2026
HD Live streaming from Space Station
objects crossing your sky now

IRIDIUM 56


IRIDIUM 56 is no longer on orbit
IRIDIUM 56 is classified as:


NORAD ID: 25170
Int'l Code: 1998-010B
Launch date: February 18, 1998
Source: United States (US)
Launch site: AIR FORCE WESTERN TEST RANGE (AFWTR)
Decay date: 2018-10-11
Your satellite tracking list
Your tracking list is empty




NASA's NSSDC Master Catalog

Two Line Element Set (TLE):
1 25170U 98010B   18284.38011863  .17267319 -95414-6  34463-3 0  9995
2 25170  86.3769 145.8182 0033126 357.4376   2.7592 16.43394840 81225
Source of the keplerian elements: AFSPC